Weather History for Rogers City, MI

Change the Weather History Date:

Monday, February 10, 2014

  Actual Average (KAPN) Record (KAPN)
Temperature  
Mean Temperature 6 °F 19 °F  
Max Temperature 12 °F 28 °F 55 °F (2009)
Min Temperature 1 °F 11 °F -25 °F (1994)
Degree Days  
Heating Degree Days 58 46  
Month to date heating degree days 460  
Since 1 July heating degree days 4942  
Moisture  
Dew Point 0 °F    
Average Humidity 70    
Maximum Humidity 86    
Minimum Humidity 59    
Precipitation  
Precipitation 0.00 in 0.05 in 0.71 in (1939)
Month to date precipitation 0.43  
Year to date precipitation 2.09  
Snow  
Snow 0.00 in 0.70 in 11.20 in (1981)
Month to date snowfall 6.4  
Since 1 July snowfall 55.0  
Snow Depth -    
Sea Level Pressure  
Sea Level Pressure 30.25 in    
Wind  
Wind Speed 9 mph (West)    
Max Wind Speed 14 mph    
Max Gust Speed 21 mph    
Visibility 9 miles    
Events Snow    
T = Trace of Precipitation, MM = Missing Value Source: NWS Daily Summary

Daily Weather History Graph

Daily Weather History Graph

Search for Another Location

Airport:

Trip Planner

Search our weather history database for the weather conditions in past years. The results will help you decide how hot, cold, wet, or windy it might be!

Date:

Astronomy

Feb. 10, 2014 Rise Set
Actual Time 7:44 AM EST 5:55 PM EST
Civil Twilight 7:13 AM EST 6:26 PM EST
Nautical Twilight 6:38 AM EST 7:01 PM EST
Astronomical Twilight 6:04 AM EST 7:35 PM EST
Moon 2:18 PM EST (2/10) 4:41 AM EST (2/10)
Length of Visible Light 11h 12m
Length of Day
10h 11m
Waxing Gibbous, 84% of the Moon is Illuminated
Feb 10
Waxing Gibbous
Feb 14
Full
Feb 22
Last Quarter
Mar 1
New
Mar 8
First Quarter

Hourly Weather History & Observations

Time (EST) Temp. Windchill Dew Point Humidity Pressure Visibility Wind Dir Wind Speed Gust Speed Precip Events Conditions
12:14 AM 12.6 °F -2.0 °F 7.3 °F 80% 30.14 in 10.0 mi NNW 12.7 mph 19.6 mph N/A   Overcast
12:35 AM 11.3 °F -3.6 °F 6.3 °F 80% 30.15 in 10.0 mi NW 12.7 mph 19.6 mph N/A   Overcast
12:55 AM 10.8 °F -4.3 °F 5.9 °F 81% 30.15 in 10.0 mi NNW 12.7 mph 19.6 mph N/A Snow Light Snow
1:14 AM 10.2 °F -5.7 °F 5.0 °F 79% 30.15 in 5.0 mi NNW 13.8 mph 20.7 mph N/A Snow Light Snow
1:35 AM 9.9 °F -4.0 °F 4.1 °F 78% 30.15 in 10.0 mi NW 10.4 mph 19.6 mph N/A   Overcast
1:55 AM 9.5 °F -5.2 °F 3.7 °F 77% 30.16 in 10.0 mi NW 11.5 mph 19.6 mph N/A   Overcast
2:14 AM 9.1 °F -5.6 °F 2.5 °F 74% 30.16 in 10.0 mi NW 11.5 mph 18.4 mph N/A   Overcast
2:35 AM 9.1 °F -4.0 °F 2.8 °F 76% 30.16 in 10.0 mi NW 9.2 mph - N/A   Overcast
2:55 AM 9.0 °F -5.1 °F 2.3 °F 74% 30.16 in 10.0 mi NW 10.4 mph - N/A   Overcast
3:14 AM 9.1 °F -5.6 °F 2.7 °F 75% 30.16 in 10.0 mi NW 11.5 mph - N/A   Overcast
3:35 AM 9.0 °F -4.2 °F 2.1 °F 74% 30.17 in 10.0 mi NW 9.2 mph - N/A   Overcast
3:54 AM 9.0 °F -3.2 °F 1.8 °F 73% 30.17 in 10.0 mi NW 8.1 mph - N/A   Overcast
4:15 AM 8.6 °F -2.6 °F 1.4 °F 73% 30.18 in 10.0 mi WNW 6.9 mph - N/A   Overcast
4:34 AM 7.9 °F -4.6 °F 2.3 °F 78% 30.18 in 4.0 mi West 8.1 mph - N/A Snow Light Snow
4:55 AM 6.8 °F -5.9 °F 1.6 °F 79% 30.18 in 7.0 mi West 8.1 mph - N/A Snow Light Snow
5:15 AM 6.4 °F -6.3 °F 1.2 °F 79% 30.19 in 7.0 mi West 8.1 mph - N/A   Overcast
5:34 AM 5.5 °F -3.4 °F 0.5 °F 80% 30.19 in 10.0 mi West 4.6 mph - N/A   Overcast
5:55 AM 4.6 °F -6.0 °F 0.1 °F 82% 30.20 in 10.0 mi WSW 5.8 mph - N/A   Overcast
6:14 AM 4.1 °F -6.7 °F -0.4 °F 82% 30.20 in 10.0 mi West 5.8 mph - N/A   Overcast
6:34 AM 3.2 °F -11.3 °F -0.8 °F 84% 30.20 in 10.0 mi WSW 9.2 mph - N/A   Overcast
6:55 AM 2.8 °F -9.5 °F -0.9 °F 84% 30.21 in 10.0 mi West 6.9 mph - N/A   Scattered Clouds
7:14 AM 2.3 °F -8.8 °F -1.3 °F 85% 30.21 in 10.0 mi WSW 5.8 mph - N/A   Mostly Cloudy
7:35 AM 2.1 °F -10.4 °F -1.5 °F 85% 30.22 in 10.0 mi WSW 6.9 mph - N/A   Overcast
7:55 AM 1.9 °F -7.6 °F -1.5 °F 86% 30.22 in 10.0 mi WSW 4.6 mph - N/A   Overcast
8:14 AM 2.7 °F -8.4 °F -0.9 °F 85% 30.22 in 10.0 mi WSW 5.8 mph - N/A   Overcast
8:35 AM 3.7 °F -8.4 °F -0.4 °F 83% 30.23 in 10.0 mi West 6.9 mph - N/A   Overcast
8:54 AM 4.6 °F -6.0 °F 0.3 °F 82% 30.24 in 10.0 mi West 5.8 mph - N/A   Overcast
9:15 AM 5.7 °F -7.2 °F 0.7 °F 80% 30.24 in 10.0 mi WSW 8.1 mph - N/A   Overcast
9:35 AM 6.1 °F -4.3 °F 0.7 °F 78% 30.25 in 10.0 mi West 5.8 mph - N/A   Overcast
9:54 AM 7.3 °F -2.8 °F 1.2 °F 76% 30.25 in 10.0 mi West 5.8 mph - N/A   Overcast
10:15 AM 7.7 °F -3.7 °F 1.2 °F 75% 30.25 in 10.0 mi West 6.9 mph - N/A   Overcast
10:35 AM 9.1 °F -1.9 °F 1.4 °F 71% 30.25 in 10.0 mi West 6.9 mph - N/A   Overcast
10:54 AM 9.3 °F -0.5 °F 1.4 °F 70% 30.25 in 10.0 mi West 5.8 mph - N/A   Overcast
11:15 AM 10.0 °F 1.8 °F 1.2 °F 68% 30.25 in 10.0 mi West 4.6 mph - N/A   Overcast
11:34 AM 11.3 °F -0.4 °F 0.9 °F 63% 30.25 in 10.0 mi WNW 8.1 mph - N/A   Overcast
11:54 AM 11.3 °F 0.7 °F -0.4 °F 59% 30.25 in 10.0 mi West 6.9 mph - N/A   Overcast
12:15 PM 10.4 °F -3.3 °F -0.4 °F 62% 30.25 in 10.0 mi WSW 10.4 mph 16.1 mph N/A   Overcast
12:34 PM 10.2 °F -2.7 °F -0.6 °F 62% 30.25 in 10.0 mi West 9.2 mph - N/A   Overcast
12:55 PM 10.4 °F -2.4 °F -0.0 °F 63% 30.25 in 7.0 mi West 9.2 mph - N/A   Overcast
1:14 PM 10.4 °F -1.5 °F 0.5 °F 64% 30.24 in 5.0 mi West 8.1 mph - N/A   Haze
1:35 PM 10.9 °F -2.6 °F -0.2 °F 61% 30.24 in 10.0 mi WNW 10.4 mph - N/A   Overcast
1:55 PM 11.1 °F -3.2 °F -0.4 °F 60% 30.24 in 10.0 mi West 11.5 mph - N/A   Overcast
2:14 PM 10.9 °F 0.2 °F 0.3 °F 62% 30.24 in 5.0 mi West 6.9 mph - N/A   Haze
2:30 PM 10.4 °F -0.4 °F -0.0 °F 63% 30.24 in 7.0 mi West 6.9 mph - N/A   Overcast
2:54 PM 10.6 °F -2.2 °F -0.6 °F 61% 30.24 in 7.0 mi West 9.2 mph - N/A   Overcast
3:14 PM 10.4 °F -3.3 °F -0.6 °F 61% 30.24 in 7.0 mi West 10.4 mph - N/A   Overcast
3:34 PM 10.6 °F -2.2 °F -0.2 °F 62% 30.25 in 7.0 mi West 9.2 mph 16.1 mph N/A Snow Light Snow
3:54 PM 10.4 °F 0.8 °F -0.2 °F 62% 30.25 in 10.0 mi NW 5.8 mph - N/A   Overcast
4:15 PM 10.2 °F -0.6 °F -0.2 °F 63% 30.26 in 10.0 mi West 6.9 mph - N/A   Overcast
4:34 PM 9.9 °F -2.2 °F -1.1 °F 61% 30.26 in 10.0 mi West 8.1 mph - N/A   Overcast
4:55 PM 9.5 °F -2.6 °F -1.1 °F 62% 30.27 in 10.0 mi West 8.1 mph - N/A   Overcast
5:14 PM 9.3 °F -0.5 °F -1.5 °F 62% 30.28 in 10.0 mi West 5.8 mph - N/A   Overcast
5:35 PM 9.0 °F -2.2 °F -1.5 °F 63% 30.29 in 10.0 mi West 6.9 mph - N/A   Overcast
5:55 PM 8.6 °F -3.7 °F -2.2 °F 62% 30.30 in 10.0 mi West 8.1 mph - N/A   Overcast
6:14 PM 8.4 °F -3.9 °F -3.1 °F 60% 30.31 in 10.0 mi West 8.1 mph - N/A   Overcast
6:35 PM 8.1 °F -3.2 °F -3.1 °F 60% 30.31 in 10.0 mi West 6.9 mph - N/A   Overcast
6:55 PM 7.7 °F -2.4 °F -2.6 °F 63% 30.32 in 10.0 mi West 5.8 mph - N/A   Overcast
7:14 PM 7.7 °F -3.7 °F -2.9 °F 62% 30.32 in 10.0 mi West 6.9 mph - N/A   Overcast
7:35 PM 7.5 °F -3.9 °F -2.7 °F 63% 30.32 in 10.0 mi West 6.9 mph - N/A   Overcast
7:55 PM 7.3 °F -2.8 °F -2.6 °F 64% 30.33 in 10.0 mi West 5.8 mph - N/A   Overcast
8:14 PM 7.3 °F -4.1 °F -2.4 °F 65% 30.33 in 10.0 mi West 6.9 mph - N/A   Overcast
8:35 PM 7.3 °F -5.2 °F -2.2 °F 65% 30.33 in 10.0 mi West 8.1 mph - N/A   Overcast
8:54 PM 7.2 °F -4.3 °F -2.2 °F 66% 30.34 in 10.0 mi WNW 6.9 mph - N/A   Overcast
9:14 PM 6.8 °F -4.8 °F -2.4 °F 66% 30.34 in 10.0 mi West 6.9 mph - N/A   Overcast
9:35 PM 6.8 °F -5.9 °F -2.6 °F 66% 30.35 in 10.0 mi WNW 8.1 mph - N/A   Overcast
9:54 PM 6.6 °F -7.1 °F -2.7 °F 66% 30.35 in 10.0 mi West 9.2 mph - N/A   Overcast
10:15 PM 6.6 °F -3.7 °F -2.2 °F 67% 30.35 in 10.0 mi West 5.8 mph - N/A   Overcast
10:35 PM 6.4 °F -9.0 °F -2.2 °F 68% 30.36 in 10.0 mi West 11.5 mph - N/A   Overcast
10:54 PM 6.1 °F -7.8 °F -3.3 °F 65% 30.36 in 10.0 mi West 9.2 mph - N/A   Overcast
11:15 PM 5.7 °F -6.1 °F -4.2 °F 64% 30.36 in 10.0 mi West 6.9 mph - N/A   Overcast
11:35 PM 5.5 °F -6.3 °F -4.2 °F 64% 30.36 in 10.0 mi West 6.9 mph - N/A   Overcast
11:54 PM 5.4 °F -7.6 °F -3.5 °F 67% 30.37 in 7.0 mi West 8.1 mph - N/A   Overcast